This is the latest recevied weather packets stored in our database for station/object K7PMV-13. If no packets are shown the sender has not sent any weather packets the latest 1 day(s).
| Time | Temp. | Humidity | Pressure | Rain* | Wind** | Luminosity | Snow |
|---|---|---|---|---|---|---|---|
| 1777998451 | 21.11° C | 51% | 1008.3 hPa | 0 mm | 0.89 m/s, 360° | 432 W/m² | - |
| 1777998132 | 21.11° C | 52% | 1008.3 hPa | 0 mm | 0.89 m/s, 360° | 823 W/m² | - |
| 1777997811 | 20.56° C | 53% | 1008.3 hPa | 0 mm | 0.89 m/s, 360° | 707 W/m² | - |
| 1777997496 | 20.56° C | 53% | 1008.3 hPa | 0 mm | 1.34 m/s, 360° | 823 W/m² | - |
| 1777997178 | 20° C | 55% | 1008.4 hPa | 0 mm | 1.34 m/s, 360° | 200 W/m² | - |
| 1777996855 | 20° C | 54% | 1008.5 hPa | 0 mm | 1.34 m/s, 360° | 179 W/m² | - |
| 1777996539 | 20° C | 54% | 1008.5 hPa | 0 mm | 2.68 m/s, 360° | 195 W/m² | - |
| 1777996219 | 20° C | 55% | 1008.5 hPa | 0 mm | 2.24 m/s, 360° | 244 W/m² | - |
| 1777995537 | 20° C | 54% | 1008.6 hPa | 0 mm | 2.68 m/s, 360° | 192 W/m² | - |
| 1777995222 | 20° C | 55% | 1008.4 hPa | 0 mm | 0.89 m/s, 360° | 255 W/m² | - |
| 1777994900 | 20° C | 55% | 1008.3 hPa | 0 mm | 1.79 m/s, 360° | 213 W/m² | - |
| 1777994585 | 20° C | 56% | 1008.2 hPa | 0 mm | 2.68 m/s, 360° | 244 W/m² | - |
| 1777994263 | 19.44° C | 58% | 1008.1 hPa | 0 mm | 1.34 m/s, 360° | 306 W/m² | - |
| 1777993939 | 19.44° C | 58% | 1008 hPa | 0 mm | 0.89 m/s, 360° | 570 W/m² | - |
| 1777993602 | 19.44° C | 58% | 1007.9 hPa | 0 mm | 0.89 m/s, 360° | 513 W/m² | - |
| 1777993269 | 19.44° C | 58% | 1008 hPa | 0 mm | 0.45 m/s, 360° | 513 W/m² | - |
| 1777992954 | 19.44° C | 60% | 1008 hPa | 0 mm | 1.34 m/s, 360° | 255 W/m² | - |
| 1777992631 | 19.44° C | 61% | 1008.1 hPa | 0 mm | 1.34 m/s, 360° | 299 W/m² | - |
| 1777992311 | 18.89° C | 61% | 1008.1 hPa | 0 mm | 0.89 m/s, 360° | 459 W/m² | - |
| 1777991990 | 18.89° C | 62% | 1008 hPa | 0 mm | 0.89 m/s, 360° | 130 W/m² | - |
| 1777991673 | 18.89° C | 62% | 1008.1 hPa | 0 mm | 1.34 m/s, 360° | 188 W/m² | - |
| 1777991350 | 18.89° C | 63% | 1008.1 hPa | 0 mm | 2.24 m/s, 360° | 144 W/m² | - |
| 1777991035 | 18.89° C | 64% | 1008.1 hPa | 0 mm | 1.34 m/s, 360° | 167 W/m² | - |
| 1777990721 | 18.89° C | 64% | 1008.1 hPa | 0 mm | 0.89 m/s, 360° | 151 W/m² | - |
| 1777990400 | 18.33° C | 65% | 1008 hPa | 0 mm | 0.45 m/s, 360° | 125 W/m² | - |
* Rain latest hour (hover to see other rain measurements)
** Current wind speed in m/s (hover to see current wind gust speed)